Temp
-6 -6 -5 -5 -5 -5 -5 -5 -5 -5 -4 -4 -4 -4 -4 -4 -4 -4 -4 -4 -4 -5 -4 -4 -4 -4 -4 -4 -4 -4 -4 -4 -4 -4 -3 -4 -4 -5 -4 -5 -5 -4 -4 -4 -5
-6 -6 -6 -6 -6 -6 -5 -5 -5 -5 -4 -4 -4 -4 -4 -4 -4 -4 -4 -4 -4 -5 -4 -4 -4 -4 -4 -4 -4 -5 -4 -4 -4 -4 -5 -5 -4 -4 -4 -5 -5 -5 -5 -4 -5
-7 -7 -7 -7 -6 -6 -6 -6 -5 -5 -5 -5 -4 -4 -4 -4 -4 -4 -4 -4 -4 -4 -4 -4 -4 -4 -4 -4 -4 -5 -3 -4 -4 -4 -3 -4 -4 -5 -5 -4 -5 -5 -4 -5 -5
-7 -7 -7 -7 -7 -7 -7 -7 -6 -6 -6 -5 -5 -4 -5 -4 -5 -4 -5 -4 -4 -4 -4 -4 -4 -4 -5 -5 -5 -5 -4 -4 -4 -4 -5 -5 -4 -5 -5 -5 -5 -5 -5 -5 -5
-8 -8 -8 -7 -7 -7 -7 -7 -7 -7 -7 -6 -6 -5 -5 -5 -5 -5 -5 -5 -5 -4 -4 -5 -4 -4 -4 -5 -5 -6 -4 -4 -6 -5 -5 -5 -5 -5 -5 -5 -5 -5 -5 -5 -5
-9 -8 -8 -8 -8 -8 -8 -7 -7 -7 -7 -7 -7 -6 -6 -5 -6 -5 -5 -5 -5 -5 -5 -5 -5 -4 -5 -4 -5 -5 -4 -4 -4 -6 -5 -5 -5 -5 -5 -6 -5 -5 -4 -4 -5
-9 -9 -9 -8 -8 -8 -8 -8 -7 -7 -8 -7 -7 -7 -7 -6 -6 -6 -5 -5 -5 -5 -5 -5 -4 -5 -4 -5 -5 -4 -4 -4 -5 -6 -5 -6 -6 -6 -6 -5 -6 -5 -4 -4 -5
-9 -9 -9 -9 -9 -8 -8 -8 -8 -7 -7 -7 -7 -7 -7 -7 -6 -7 -6 -6 -6 -5 -5 -5 -4 -4 -5 -5 -5 -4 -5 -5 -6 -5 -5 -5 -6 -5 -6 -5 -6 -5 -5 -4 -5
-9 -10 -9 -9 -9 -9 -9 -8 -8 -8 -8 -7 -7 -7 -7 -7 -7 -7 -7 -6 -6 -6 -5 -5 -5 -5 -5 -5 -5 -4 -5 -5 -6 -7 -7 -6 -6 -6 -6 -6 -5 -6 -6 -5 -5
-10 -10 -10 -10 -10 -9 -9 -9 -9 -8 -8 -8 -8 -8 -7 -7 -7 -7 -7 -7 -7 -6 -6 -6 -5 -5 -5 -6 -6 -5 -5 -5 -6 -8 -8 -7 -6 -6 -6 -6 -5 -5 -6 -5 -5
-11 -11 -11 -10 -10 -10 -10 -10 -9 -9 -9 -8 -8 -8 -8 -8 -7 -7 -7 -7 -7 -7 -7 -6 -6 -6 -6 -6 -6 -6 -5 -5 -6 -7 -8 -8 -7 -7 -7 -6 -6 -5 -5 -6 -5
-10 -10 -11 -11 -11 -10 -10 -10 -10 -9 -9 -9 -8 -8 -8 -8 -7 -7 -7 -7 -7 -7 -7 -6 -6 -7 -7 -6 -7 -6 -6 -6 -6 -7 -7 -8 -8 -7 -6 -6 -5 -6 -6 -6 -6
-10 -10 -10 -11 -11 -11 -11 -11 -10 -10 -10 -9 -9 -9 -8 -8 -8 -8 -7 -7 -7 -7 -7 -7 -7 -7 -7 -7 -7 -7 -6 -7 -7 -7 -7 -6 -6 -7 -8 -7 -7 -6 -6 -5 -5
-11 -11 -11 -11 -11 -11 -11 -11 -11 -11 -11 -10 -10 -10 -9 -8 -8 -8 -8 -7 -7 -7 -7 -7 -7 -7 -7 -7 -7 -7 -8 -7 -8 -7 -9 -8 -8 -8 -8 -7 -6 -6 -6 -6 -6
-12 -12 -12 -12 -12 -12 -12 -12 -12 -11 -12 -12 -11 -10 -10 -9 -9 -9 -8 -8 -8 -7 -7 -7 -7 -7 -7 -7 -7 -7 -8 -8 -7 -7 -8 -8 -8 -8 -7 -6 -6 -7 -8 -6 -6
-13 -13 -13 -13 -14 -14 -13 -14 -13 -13 -13 -13 -12 -12 -11 -10 -10 -10 -10 -10 -9 -8 -8 -8 -8 -7 -7 -7 -7 -7 -7 -8 -8 -7 -7 -9 -8 -7 -7 -6 -6 -6 -7 -7 -5
-14 -13 -13 -14 -15 -15 -15 -15 -14 -14 -14 -13 -14 -14 -13 -12 -12 -12 -12 -11 -10 -9 -8 -7 -7 -8 -8 -8 -8 -8 -7 -7 -8 -8 -7 -8 -9 -7 -8 -8 -6 -6 -7 -7 -7
-14 -14 -14 -15 -15 -15 -15 -15 -15 -15 -15 -14 -15 -15 -14 -14 -13 -13 -13 -12 -11 -10 -9 -9 -9 -8 -7 -7 -8 -8 -8 -7 -7 -7 -7 -8 -9 -8 -8 -9 -8 -7 -6 -6 -7
-14 -14 -14 -15 -16 -16 -16 -15 -15 -15 -15 -16 -15 -16 -15 -15 -15 -14 -13 -13 -11 -11 -10 -10 -10 -10 -9 -9 -8 -9 -8 -9 -9 -8 -8 -8 -8 -8 -9 -9 -9 -8 -8 -7 -5
-14 -14 -15 -15 -15 -16 -16 -15 -16 -15 -16 -16 -16 -16 -15 -15 -15 -15 -13 -13 -12 -12 -12 -12 -12 -11 -12 -11 -10 -10 -10 -10 -9 -8 -8 -9 -9 -8 -9 -9 -9 -8 -9 -6 -6
-15 -15 -15 -15 -15 -16 -15 -16 -16 -15 -16 -16 -15 -15 -15 -15 -14 -14 -14 -13 -13 -13 -13 -12 -12 -13 -13 -13 -13 -12 -11 -11 -10 -10 -10 -10 -10 -10 -9 -8 -9 -8 -7 -8 -7
-15 -15 -15 -15 -15 -16 -16 -15 -15 -16 -16 -15 -15 -15 -15 -16 -15 -15 -15 -14 -14 -13 -13 -13 -13 -13 -13 -14 -13 -13 -13 -12 -11 -11 -12 -11 -11 -10 -10 -9 -8 -8 -8 -8 -8
-16 -15 -15 -15 -15 -15 -15 -15 -15 -15 -15 -16 -16 -16 -16 -16 -16 -16 -15 -14 -14 -13 -14 -13 -13 -13 -13 -14 -14 -14 -14 -14 -13 -11 -13 -13 -12 -11 -10 -10 -9 -8 -8 -7 -7
-15 -15 -15 -15 -15 -15 -15 -16 -16 -15 -15 -15 -15 -15 -15 -15 -16 -15 -14 -14 -13 -14 -14 -14 -13 -13 -13 -13 -13 -14 -14 -14 -13 -13 -12 -12 -12 -11 -11 -10 -9 -8 -8 -7 -6
-16 -16 -16 -16 -16 -16 -16 -16 -16 -16 -16 -15 -15 -15 -15 -15 -15 -16 -16 -15 -15 -14 -15 -14 -14 -13 -13 -13 -13 -13 -14 -14 -14 -14 -13 -13 -13 -11 -10 -10 -10 -9 -8 -8 -8
-16 -16 -16 -16 -16 -16 -17 -17 -17 -17 -16 -16 -16 -16 -16 -16 -16 -16 -16 -15 -15 -15 -15 -15 -15 -14 -14 -13 -13 -13 -14 -14 -14 -14 -13 -14 -13 -11 -10 -11 -9 -9 -9 -9 -9
-16 -16 -16 -15 -16 -16 -17 -17 -17 -17 -18 -18 -18 -17 -17 -17 -17 -17 -17 -17 -17 -17 -17 -16 -16 -16 -16 -16 -15 -14 -14 -14 -15 -14 -14 -13 -13 -12 -11 -11 -10 -10 -10 -10 -10
Height
5862 5861 5861 5861 5861 5862 5862 5863 5864 5864 5866 5866 5868 5869 5871 5872 5873 5875 5877 5881 5882 5882 5884 5885 5886 5888 5890 5891 5893 5896 5896 5897 5897 5896 5892 5891 5876 5892 5899 5903 5905 5904 5907 5910 5912
5857 5856 5856 5855 5855 5856 5857 5858 5859 5860 5861 5863 5864 5866 5868 5870 5870 5871 5874 5876 5879 5880 5882 5882 5883 5886 5887 5889 5892 5894 5896 5897 5898 5896 5895 5894 5890 5893 5899 5903 5907 5905 5908 5911 5913
5851 5851 5850 5850 5850 5850 5851 5852 5853 5854 5856 5858 5860 5861 5864 5866 5867 5869 5870 5872 5875 5877 5879 5880 5882 5884 5886 5889 5890 5890 5896 5894 5897 5895 5897 5896 5897 5899 5899 5903 5905 5907 5909 5911 5913
5845 5844 5844 5844 5845 5845 5846 5846 5847 5849 5850 5852 5855 5857 5859 5862 5864 5865 5867 5868 5871 5873 5875 5877 5879 5882 5884 5888 5888 5888 5894 5892 5893 5896 5894 5897 5898 5898 5900 5903 5903 5906 5906 5909 5914
5839 5838 5837 5838 5838 5839 5840 5841 5842 5843 5845 5847 5849 5852 5854 5857 5859 5860 5862 5864 5867 5869 5871 5874 5876 5878 5881 5883 5886 5886 5889 5890 5889 5890 5892 5896 5896 5899 5901 5898 5899 5901 5904 5908 5913
5832 5832 5831 5831 5831 5832 5833 5834 5836 5838 5840 5842 5844 5847 5849 5853 5853 5854 5858 5860 5863 5865 5868 5869 5870 5872 5876 5879 5883 5885 5887 5888 5885 5888 5892 5896 5897 5896 5897 5900 5901 5903 5906 5908 5912
5823 5824 5824 5824 5824 5825 5825 5827 5829 5831 5833 5836 5839 5841 5844 5847 5849 5850 5853 5856 5858 5860 5863 5863 5867 5869 5871 5876 5877 5882 5887 5885 5885 5888 5891 5894 5896 5896 5899 5899 5901 5906 5908 5907 5910
5815 5814 5815 5816 5817 5817 5818 5819 5822 5824 5827 5830 5832 5835 5837 5841 5843 5846 5847 5851 5852 5856 5857 5858 5862 5865 5870 5871 5876 5880 5884 5885 5884 5887 5891 5893 5895 5895 5897 5903 5903 5905 5904 5906 5908
5806 5806 5806 5807 5808 5809 5810 5812 5814 5817 5819 5822 5826 5828 5831 5835 5837 5840 5842 5844 5847 5850 5852 5854 5859 5861 5864 5869 5873 5877 5881 5883 5883 5885 5888 5890 5893 5893 5893 5900 5904 5904 5906 5905 5907
5799 5798 5797 5798 5799 5800 5802 5804 5806 5809 5812 5815 5818 5822 5825 5828 5830 5833 5837 5840 5843 5844 5848 5850 5854 5857 5861 5865 5869 5872 5873 5876 5877 5882 5884 5886 5890 5893 5893 5898 5903 5905 5906 5908 5907
5793 5791 5790 5789 5790 5791 5794 5796 5800 5802 5804 5807 5811 5814 5817 5821 5824 5827 5831 5834 5836 5840 5843 5845 5850 5853 5856 5859 5862 5866 5870 5875 5876 5877 5877 5878 5883 5888 5891 5898 5901 5902 5904 5906 5907
5786 5784 5783 5782 5782 5783 5785 5787 5790 5794 5797 5799 5802 5806 5809 5813 5817 5820 5825 5829 5831 5834 5836 5842 5846 5849 5850 5854 5857 5860 5865 5871 5873 5872 5873 5875 5879 5883 5890 5896 5899 5902 5905 5906 5904
5778 5776 5774 5774 5775 5775 5776 5778 5781 5785 5789 5792 5794 5798 5801 5806 5810 5812 5817 5821 5825 5828 5831 5835 5840 5841 5843 5847 5851 5855 5860 5866 5868 5867 5869 5873 5874 5880 5886 5890 5895 5899 5902 5901 5901
5772 5768 5765 5764 5766 5766 5768 5770 5773 5777 5781 5785 5788 5791 5792 5797 5803 5805 5809 5814 5818 5821 5825 5829 5832 5836 5840 5844 5847 5850 5855 5859 5861 5863 5865 5867 5870 5873 5880 5884 5889 5894 5896 5896 5899
5763 5760 5757 5755 5755 5757 5760 5762 5766 5770 5774 5778 5780 5782 5786 5790 5795 5796 5801 5805 5809 5812 5819 5823 5826 5829 5834 5839 5842 5847 5848 5854 5857 5858 5860 5864 5868 5871 5874 5880 5886 5890 5892 5896 5898
5757 5754 5752 5749 5748 5750 5752 5756 5760 5765 5768 5771 5773 5776 5780 5782 5786 5788 5792 5796 5800 5804 5810 5814 5819 5824 5829 5831 5833 5838 5842 5845 5851 5853 5859 5862 5864 5868 5872 5881 5885 5888 5892 5895 5897
5754 5752 5749 5745 5744 5746 5748 5753 5756 5757 5759 5764 5768 5771 5774 5776 5779 5781 5785 5787 5792 5798 5802 5808 5811 5816 5816 5823 5827 5831 5836 5841 5845 5850 5858 5862 5858 5867 5873 5878 5883 5885 5887 5892 5894
5751 5750 5747 5743 5743 5744 5746 5750 5753 5753 5754 5758 5765 5768 5769 5772 5775 5777 5779 5780 5785 5791 5796 5803 5808 5806 5815 5818 5821 5825 5829 5834 5839 5844 5851 5855 5853 5865 5871 5874 5877 5881 5885 5888 5889
5750 5748 5746 5743 5743 5743 5745 5749 5751 5753 5755 5759 5762 5764 5764 5766 5770 5770 5773 5777 5783 5788 5793 5797 5800 5803 5808 5811 5814 5817 5821 5827 5830 5836 5840 5846 5853 5862 5857 5860 5863 5871 5877 5883 5890
5750 5749 5747 5745 5744 5743 5746 5749 5751 5753 5755 5755 5757 5760 5762 5763 5764 5764 5767 5773 5777 5782 5786 5792 5795 5798 5802 5803 5807 5809 5814 5816 5819 5828 5831 5838 5846 5852 5850 5852 5855 5859 5865 5874 5880
5751 5749 5748 5747 5746 5746 5746 5748 5750 5752 5752 5752 5753 5755 5757 5759 5759 5762 5765 5769 5772 5776 5780 5782 5788 5793 5795 5796 5798 5801 5803 5806 5812 5817 5822 5829 5841 5839 5840 5844 5848 5853 5859 5865 5871
5753 5753 5750 5749 5749 5747 5746 5745 5747 5746 5746 5746 5749 5750 5752 5754 5754 5758 5760 5763 5766 5769 5773 5775 5779 5786 5789 5787 5790 5793 5794 5799 5803 5810 5813 5819 5830 5829 5830 5834 5840 5847 5854 5854 5866
5755 5752 5751 5749 5748 5747 5746 5745 5744 5744 5743 5744 5744 5745 5747 5748 5751 5751 5753 5756 5758 5762 5764 5767 5770 5775 5780 5780 5782 5786 5787 5790 5796 5802 5806 5808 5822 5820 5821 5828 5832 5838 5842 5844 5846
5754 5751 5749 5747 5745 5744 5743 5742 5740 5740 5739 5739 5740 5741 5742 5742 5744 5744 5746 5749 5752 5755 5755 5758 5760 5764 5769 5771 5774 5779 5781 5783 5788 5792 5797 5800 5809 5808 5812 5820 5824 5828 5831 5835 5838
5752 5749 5747 5744 5742 5739 5738 5737 5736 5736 5735 5734 5733 5734 5735 5736 5738 5739 5741 5743 5743 5746 5748 5750 5751 5753 5756 5761 5766 5771 5775 5774 5780 5781 5784 5791 5797 5796 5804 5809 5815 5819 5821 5824 5830
5751 5748 5745 5743 5740 5738 5736 5733 5732 5730 5729 5728 5728 5729 5729 5730 5731 5732 5733 5734 5735 5736 5739 5741 5743 5744 5745 5750 5756 5762 5763 5763 5767 5766 5774 5782 5787 5787 5796 5801 5808 5813 5815 5819 5824
5750 5748 5745 5743 5740 5737 5734 5732 5730 5728 5727 5725 5724 5724 5723 5724 5724 5725 5726 5728 5729 5730 5731 5735 5736 5736 5738 5739 5743 5748 5747 5748 5750 5755 5761 5767 5778 5782 5789 5792 5795 5800 5806 5810 5816
Wind_Speed
20 20 20 19 19 17 17 16 16 16 14 14 13 12 10 12 14 17 21 18 18 17 16 16 20 19 18 17 14 10 11 8 12 9 11 21 20 25 16 15 10 9 2 6 8
20 19 19 20 20 19 19 18 18 17 16 16 16 15 13 12 14 16 19 22 21 19 17 17 18 20 21 20 17 14 13 10 10 11 4 16 13 22 11 13 16 9 4 5 8
22 21 20 19 19 19 19 19 20 19 19 18 18 17 16 15 16 15 18 19 23 23 19 20 17 16 16 15 16 18 12 13 9 8 7 6 4 11 13 11 14 9 6 5 9
22 22 22 21 20 20 19 19 19 19 19 19 20 20 18 17 18 17 17 19 19 23 25 20 19 18 15 12 14 17 14 16 8 4 5 9 14 18 12 16 10 8 9 4 8
25 23 23 22 22 22 22 21 20 20 19 18 19 20 21 19 18 21 20 19 18 22 24 25 22 19 18 18 14 16 16 16 9 6 5 1 10 3 16 14 10 9 7 7 8
28 27 26 25 24 24 24 24 24 23 21 20 20 18 19 18 19 24 22 21 19 19 21 23 29 27 22 21 19 17 16 16 16 13 7 3 3 6 8 13 4 2 6 6 7
29 29 29 28 27 26 26 25 26 25 23 22 22 21 21 21 20 22 22 23 23 22 20 25 25 27 26 21 22 18 11 16 12 9 15 7 7 7 5 5 8 3 5 5 5
30 29 28 27 29 30 28 27 27 26 25 24 23 22 24 24 23 21 22 22 23 24 26 25 25 25 25 25 20 15 10 10 11 13 13 9 8 5 9 7 9 6 7 2 4
27 28 29 28 27 28 29 29 28 27 26 25 25 26 26 24 25 25 23 22 23 25 27 27 24 24 24 23 21 19 13 12 12 12 11 13 10 12 6 8 8 10 8 7 7
23 24 28 28 27 27 28 28 28 28 26 26 25 24 26 25 27 27 28 26 23 24 24 25 24 24 21 19 18 20 23 21 19 12 13 17 15 9 9 4 3 10 4 8 7
21 21 22 26 28 28 28 27 27 27 27 27 27 26 26 26 26 28 29 30 29 28 24 25 24 22 22 21 22 21 23 22 23 19 15 15 15 10 10 7 7 15 12 8 8
26 25 23 22 25 28 29 28 28 27 27 28 28 28 28 27 28 29 28 30 31 31 30 26 22 21 25 24 24 24 23 21 25 24 24 18 8 12 12 10 11 12 7 17 14
27 28 27 25 25 27 29 29 30 28 26 26 29 29 28 29 27 29 30 30 32 33 31 29 28 28 28 28 27 26 24 23 28 27 27 25 22 18 14 14 11 9 10 15 20
25 25 25 27 24 25 28 27 28 28 24 25 25 24 28 29 28 29 31 31 31 34 35 34 32 32 30 27 28 29 24 26 30 31 25 27 23 22 18 18 11 9 9 8 11
25 22 21 22 21 20 22 27 24 26 18 19 22 24 25 28 27 29 31 31 32 34 34 36 37 35 34 31 30 29 29 28 32 34 35 30 29 26 25 18 12 10 5 11 16
16 15 16 16 16 16 17 14 18 17 15 14 17 18 21 26 27 29 27 30 34 35 35 33 36 37 36 36 37 35 33 34 35 36 35 30 30 30 29 21 18 18 6 9 20
14 15 15 13 8 11 14 14 20 19 18 20 16 11 16 18 20 24 24 26 30 33 36 38 39 38 39 38 38 38 36 34 35 37 34 37 40 30 27 25 19 17 19 15 20
13 15 14 8 4 9 15 19 23 22 22 21 10 12 12 16 18 20 22 25 29 30 33 33 34 39 40 42 40 40 39 38 37 35 33 33 47 34 27 25 27 25 20 22 24
15 13 12 6 4 11 12 16 21 20 17 14 10 10 14 17 15 21 25 25 28 29 31 30 30 35 36 39 43 39 41 39 39 36 37 34 31 25 41 37 34 28 26 23 21
14 12 9 5 3 9 12 14 17 14 12 20 20 15 15 18 27 27 29 29 29 27 26 24 19 25 25 30 36 40 42 40 43 42 41 34 26 29 31 32 35 34 33 20 21
16 14 9 6 3 5 8 11 12 15 17 21 22 21 22 23 24 24 25 25 24 23 23 27 23 22 24 27 30 32 38 41 42 38 38 34 26 30 34 32 31 33 31 14 18
13 13 11 9 7 4 5 8 9 13 20 22 18 21 24 27 27 24 21 20 20 20 21 24 25 24 27 34 34 33 35 37 45 39 38 34 33 35 35 34 33 30 28 24 17
13 13 12 11 8 8 8 8 8 9 13 14 15 16 17 22 26 26 23 23 23 21 22 24 28 28 30 36 39 37 36 40 41 46 41 38 34 39 37 32 35 35 35 34 32
13 12 13 11 11 11 11 11 13 15 16 18 18 19 20 22 25 29 27 25 24 24 28 29 29 30 34 37 40 42 42 42 41 44 48 48 43 47 41 38 27 36 39 41 38
16 16 15 12 13 13 13 13 14 14 16 17 19 21 22 23 25 23 25 27 30 30 29 30 31 32 34 35 39 41 46 49 45 48 49 51 47 53 51 44 33 27 37 42 40
13 15 17 15 12 13 13 12 11 11 10 10 12 15 13 14 14 16 21 24 27 29 26 25 24 28 30 35 36 37 46 53 52 54 52 55 54 60 60 43 46 35 36 41 45
16 16 14 20 16 13 11 10 9 9 6 7 6 3 6 11 14 16 17 18 19 22 25 22 22 25 25 28 31 37 40 53 59 60 61 59 58 61 62 59 55 46 40 45 49
Wind_Direction
267 263 262 261 260 256 253 251 249 250 244 248 242 238 227 216 214 215 214 214 211 215 217 222 217 215 217 230 241 239 251 262 293 306 328 181 180 143 163 159 171 166 160 106 100
274 269 263 257 256 253 251 247 244 242 243 240 241 236 234 222 221 219 218 215 211 218 222 225 222 223 224 226 229 235 247 259 260 301 330 206 195 144 158 165 160 155 138 122 98
280 272 266 261 255 251 248 246 244 240 237 235 237 237 230 227 227 222 223 218 214 217 221 228 229 233 235 237 243 242 243 257 250 265 264 135 141 171 155 132 146 156 133 111 100
277 274 269 262 255 252 248 245 241 239 235 233 229 232 232 226 228 226 226 221 217 217 220 224 226 226 233 235 237 235 230 243 228 148 154 237 213 185 199 175 166 162 135 106 108
277 273 270 267 261 256 250 247 243 238 234 230 228 226 229 227 227 226 222 225 221 218 219 223 229 230 224 227 229 230 231 230 223 184 194 274 233 192 171 157 167 142 132 128 121
277 273 269 267 265 262 257 250 246 243 240 232 229 225 221 223 224 226 223 224 222 222 219 219 222 226 231 226 226 225 228 239 219 178 182 153 177 58 179 141 102 148 155 136 129
275 271 268 265 264 261 260 256 250 245 243 241 237 232 226 213 216 233 224 221 222 223 220 222 222 223 228 232 232 235 226 246 219 188 168 204 240 184 167 110 119 226 229 155 144
279 276 270 266 262 261 258 255 253 249 245 244 243 240 235 224 219 226 228 219 223 220 222 225 224 228 228 232 239 237 222 238 220 203 195 225 208 195 201 127 112 208 215 191 174
277 272 268 265 262 258 256 253 252 251 249 247 245 243 242 235 229 225 226 223 220 223 223 225 225 227 225 233 235 232 218 215 216 217 239 250 262 229 197 36 199 318 260 185 198
294 276 269 262 260 257 254 251 250 248 246 245 244 240 238 234 233 228 224 225 221 224 226 228 223 226 228 225 230 217 212 207 203 193 227 249 263 258 261 289 15 142 232 240 197
298 292 274 264 259 255 254 252 247 247 243 242 240 238 236 235 233 231 226 223 226 225 224 226 222 220 222 220 219 218 218 211 217 207 207 227 237 246 250 265 241 235 258 268 234
293 291 286 270 260 255 251 252 250 245 243 239 238 235 235 233 231 230 229 226 226 228 227 225 223 218 220 220 220 219 212 212 217 203 219 222 222 232 229 235 233 256 243 267 258
295 287 284 274 267 260 252 248 247 243 241 242 238 237 236 232 229 230 227 225 226 227 227 223 220 218 220 217 215 220 219 202 210 198 219 226 234 227 237 230 243 259 288 240 251
307 297 287 282 271 254 248 251 247 242 240 241 240 235 236 233 230 231 227 225 224 224 225 225 224 223 224 226 218 217 213 210 202 205 200 220 222 230 238 240 234 281 335 199 207
304 300 294 280 269 254 245 244 246 246 235 232 230 229 229 233 231 228 228 227 223 222 222 224 228 226 226 224 225 218 214 217 211 212 206 218 220 226 235 235 241 254 283 201 208
323 320 322 306 265 244 232 222 224 229 211 209 211 219 222 225 224 228 227 226 225 222 220 221 225 230 230 227 229 225 221 213 219 219 218 215 225 228 236 246 240 246 261 283 226
329 332 332 322 259 225 186 182 193 193 196 210 193 202 210 211 210 215 220 224 226 224 223 223 224 225 228 229 228 233 230 225 223 226 228 212 224 235 235 244 249 246 222 228 193
330 331 340 332 243 190 179 184 190 193 200 211 192 198 211 212 202 197 203 212 217 221 226 223 225 227 229 230 234 236 235 231 232 231 231 217 221 228 230 232 244 249 246 220 207
353 338 338 350 193 185 185 194 194 197 204 219 203 201 230 233 226 225 211 221 221 224 227 227 226 232 233 232 230 228 236 238 240 235 235 230 228 214 226 226 224 233 245 237 224
358 356 347 356 224 205 198 192 199 203 209 213 217 226 237 243 237 230 230 221 229 229 230 228 230 233 231 235 238 233 231 231 236 235 239 234 226 223 214 213 222 223 230 240 238
16 13 350 321 311 253 235 220 220 224 231 237 240 242 244 249 253 253 254 254 250 243 242 242 224 224 224 228 229 236 236 229 232 231 234 234 218 219 218 205 206 219 225 216 250
6 11 2 16 36 345 289 268 240 233 237 250 255 251 241 243 249 253 255 248 240 239 233 236 238 221 220 222 228 226 235 237 233 221 225 230 205 216 218 214 202 206 200 190 225
357 355 347 342 343 299 279 276 259 242 241 245 248 242 235 233 242 250 248 244 243 245 248 240 236 230 220 223 227 226 230 236 237 231 217 214 203 212 218 213 211 212 200 209 211
353 349 336 330 319 307 298 289 282 275 266 263 256 249 244 243 239 243 245 246 245 249 254 251 248 242 232 230 228 227 227 228 232 236 230 223 205 210 210 208 225 217 220 221 216
341 343 332 334 324 315 310 305 298 291 278 272 267 261 255 248 248 252 256 256 255 253 252 250 250 248 242 236 232 230 226 231 228 231 232 221 211 214 206 214 209 219 219 222 219
6 354 344 346 337 322 315 316 316 314 302 286 273 270 269 263 252 244 247 250 253 251 252 253 254 252 252 246 242 232 229 230 231 232 232 222 218 223 206 207 208 211 221 216 224
12 11 27 49 32 16 12 6 357 352 356 360 354 316 265 252 255 257 253 248 247 252 254 241 246 254 254 261 257 248 236 227 225 230 230 227 219 225 219 206 209 205 210 215 215